�N����,����,�~����,�C��,���x,�C��,����,���ϕ���,�ő�u�ԕ���,�ő厞����,���˗�,�I�_���x,�n�����x,�ő啗���N��,DTYPE
"17/02/22","00:10",0.0,2.0,79.9,1022.3,318.8,2.8,4.7,329.8,0.00,-1.1,5.2,"00:00:16",1
"17/02/22","00:20",0.0,1.8,80.6,1022.3,326.4,2.0,3.4,329.7,0.00,-1.1,5.3,"00:10:58",1
"17/02/22","00:30",0.0,1.6,82.1,1022.0,321.3,1.8,2.8,320.9,0.00,-1.1,5.3,"00:21:24",1
"17/02/22","00:40",0.0,1.5,83.3,1021.5,328.4,0.8,2.1,320.9,0.00,-1.0,5.1,"00:39:18",1
"17/02/22","00:50",0.0,1.1,84.4,1021.5,322.1,2.2,3.3,339.8,0.00,-1.2,5.1,"00:42:20",1
"17/02/22","01:00",0.0,0.7,85.9,1021.1,319.1,1.7,3.1,317.8,0.00,-1.3,5.0,"00:50:08",1
"17/02/22","01:10",0.0,0.6,87.1,1020.6,323.0,1.8,2.8,336.6,0.00,-1.3,5.0,"01:08:08",1
"17/02/22","01:20",0.0,0.3,87.6,1020.6,316.1,1.6,2.6,308.5,0.00,-1.5,4.9,"01:18:08",1
"17/02/22","01:30",0.0,-0.3,88.9,1020.4,293.5,1.5,1.9,299.5,0.00,-1.9,4.8,"01:20:08",1
"17/02/22","01:40",0.0,-0.5,90.4,1020.4,265.0,0.5,1.6,307.6,0.00,-1.8,4.7,"01:38:48",1
"17/02/22","01:50",0.0,-0.5,91.6,1019.9,309.8,2.0,2.6,320.6,0.00,-1.7,4.7,"01:42:08",1
"17/02/22","02:00",0.0,-0.6,92.2,1019.9,284.3,1.0,1.6,271.3,0.00,-1.7,4.7,"01:50:40",1
"17/02/22","02:10",0.0,-0.8,92.6,1019.2,154.8,0.5,1.8,330.1,0.00,-1.8,4.8,"02:09:36",1
"17/02/22","02:20",0.0,-1.1,93.1,1019.7,314.0,1.0,1.6,343.9,0.00,-2.0,4.5,"02:12:40",1
"17/02/22","02:30",0.0,-0.9,94.3,1019.4,299.9,1.7,2.8,326.2,0.00,-1.7,4.5,"02:29:20",1
"17/02/22","02:40",0.0,-0.6,94.8,1019.4,308.2,1.8,3.3,305.1,0.00,-1.3,4.6,"02:38:50",1
"17/02/22","02:50",0.0,-0.3,94.4,1019.7,298.7,2.5,3.6,305.5,0.00,-1.0,4.4,"02:41:06",1
"17/02/22","03:00",0.0,-0.3,94.2,1019.7,296.1,1.8,2.7,306.5,0.00,-1.1,4.5,"02:50:16",1
"17/02/22","03:10",0.0,-0.3,93.5,1019.4,339.1,1.7,3.2,338.0,0.00,-1.2,4.4,"03:02:02",1
"17/02/22","03:20",0.0,-0.7,93.2,1019.2,138.8,0.6,1.2,132.1,0.00,-1.6,4.5,"03:15:52",1
"17/02/22","03:30",0.0,-0.9,93.6,1019.7,285.9,1.1,1.7,326.5,0.00,-1.8,4.4,"03:25:04",1
"17/02/22","03:40",0.0,-1.0,94.2,1019.4,320.2,1.1,1.8,326.7,0.00,-1.8,4.2,"03:38:00",1
"17/02/22","03:50",0.0,-1.0,94.7,1019.4,302.8,1.3,2.6,332.8,0.00,-1.7,4.2,"03:45:28",1
"17/02/22","04:00",0.0,-1.1,94.9,1019.7,252.6,0.5,0.9,261.0,0.00,-1.8,4.2,"03:56:48",1
"17/02/22","04:10",0.0,-1.2,95.3,1019.4,288.9,1.1,1.6,319.4,0.00,-1.8,4.1,"04:03:04",1
"17/02/22","04:20",0.0,-1.1,95.5,1019.7,338.7,1.2,1.9,349.6,0.00,-1.7,4.2,"04:17:28",1
"17/02/22","04:30",0.0,-1.4,95.4,1019.0,319.2,0.8,2.0,324.2,0.00,-2.0,4.1,"04:27:04",1
"17/02/22","04:40",0.0,-1.6,95.7,1019.2,300.5,1.2,1.7,332.7,0.00,-2.2,4.0,"04:32:32",1
"17/02/22","04:50",0.0,-1.7,96.2,1019.4,302.4,1.3,2.0,313.5,0.00,-2.2,4.1,"04:48:24",1
"17/02/22","05:00",0.0,-1.6,96.8,1019.9,299.3,1.1,1.6,310.1,0.00,-2.0,4.0,"04:50:08",1
"17/02/22","05:10",0.0,-1.3,97.1,1019.9,311.1,1.1,1.6,336.0,0.00,-1.7,3.9,"05:06:56",1
"17/02/22","05:20",0.0,-1.3,97.1,1019.7,333.6,0.7,1.6,339.8,0.00,-1.7,3.9,"05:19:52",1
"17/02/22","05:30",0.0,-1.4,97.1,1019.9,308.6,1.0,1.7,339.7,0.00,-1.8,3.9,"05:21:12",1
"17/02/22","05:40",0.0,-1.7,97.1,1019.4,302.9,1.2,1.8,316.0,0.00,-2.1,3.9,"05:37:44",1
"17/02/22","05:50",0.0,-1.9,97.2,1019.7,1.6,0.5,1.2,301.6,0.00,-2.2,4.0,"05:40:48",1
"17/02/22","06:00",0.0,-1.9,97.6,1019.2,321.8,1.1,2.0,320.5,0.00,-2.2,3.8,"05:59:04",1
"17/02/22","06:10",0.0,-1.9,97.6,1019.2,296.5,1.5,1.7,304.8,0.00,-2.2,3.7,"06:04:56",1
"17/02/22","06:20",0.0,-1.8,98.2,1019.4,308.8,1.7,2.4,319.7,0.00,-2.0,3.9,"06:11:36",1
"17/02/22","06:30",0.0,-1.5,96.9,1019.2,329.6,2.0,2.7,340.4,0.00,-1.9,3.7,"06:24:40",1
"17/02/22","06:40",0.0,-1.8,97.9,1019.0,321.0,1.8,2.6,332.5,0.00,-2.0,3.9,"06:33:04",1
"17/02/22","06:50",0.0,-1.7,98.1,1018.7,307.8,1.2,1.7,329.4,0.00,-1.9,3.5,"06:43:44",1
"17/02/22","07:00",0.0,-1.8,97.0,1018.7,301.7,1.7,2.1,316.4,0.00,-2.2,3.7,"06:59:18",1
"17/02/22","07:10",0.0,-1.8,98.3,1018.5,306.3,1.6,2.0,314.6,0.00,-2.0,3.4,"07:00:08",1
"17/02/22","07:20",0.0,-1.1,97.5,1019.2,327.3,1.7,2.4,328.4,0.00,-1.4,3.6,"07:14:40",1
"17/02/22","07:30",0.0,-0.6,98.2,1019.0,315.1,1.7,2.5,320.3,0.01,-0.8,3.7,"07:25:52",1
"17/02/22","07:40",0.0,0.0,94.7,1019.2,296.8,0.8,1.9,321.3,0.01,-0.7,3.6,"07:32:06",1
"17/02/22","07:50",0.0,0.2,94.5,1019.2,287.2,0.8,1.9,311.1,0.01,-0.5,3.7,"07:41:44",1
"17/02/22","08:00",0.0,-0.1,95.2,1019.0,308.7,1.8,2.6,319.8,0.03,-0.7,3.7,"07:53:20",1
"17/02/22","08:10",0.0,0.4,94.4,1019.2,285.8,1.7,2.5,321.5,0.04,-0.4,3.7,"08:06:24",1
"17/02/22","08:20",0.0,1.5,91.2,1019.2,291.6,1.5,2.1,311.3,0.05,0.3,3.5,"08:17:34",1
"17/02/22","08:30",0.0,2.4,86.9,1019.4,281.0,0.7,1.0,301.3,0.07,0.5,3.9,"08:20:44",1
"17/02/22","08:40",0.0,3.0,82.9,1019.9,281.9,0.8,1.4,305.9,0.11,0.4,4.0,"08:35:00",1
"17/02/22","08:50",0.0,3.3,80.9,1020.1,262.8,1.0,1.7,303.7,0.15,0.4,4.2,"08:47:32",1
"17/02/22","09:00",0.0,3.4,80.9,1020.6,260.2,0.8,2.0,241.4,0.19,0.5,4.3,"08:58:44",1
"17/02/22","09:10",0.0,4.2,78.6,1020.4,260.7,1.0,1.4,259.9,0.22,0.9,4.2,"09:02:20",1
"17/02/22","09:20",0.0,4.1,77.2,1020.4,154.7,0.8,1.7,115.8,0.25,0.5,4.6,"09:15:52",1
"17/02/22","09:30",0.0,4.5,74.7,1021.3,202.4,1.0,1.9,136.2,0.27,0.4,4.6,"09:27:16",1
"17/02/22","09:40",0.0,4.6,73.6,1021.1,19.2,1.0,2.1,334.3,0.30,0.3,5.0,"09:39:42",1
"17/02/22","09:50",0.0,5.1,72.7,1021.3,237.4,1.1,2.7,241.6,0.33,0.6,5.2,"09:49:18",1
"17/02/22","10:00",0.0,5.9,70.8,1020.8,262.3,1.1,2.1,196.7,0.31,1.1,5.3,"09:56:46",1
"17/02/22","10:10",0.0,5.6,65.2,1021.1,213.5,1.2,2.4,88.5,0.35,-0.4,5.5,"10:09:10",1
"17/02/22","10:20",0.0,6.2,65.4,1021.1,278.5,1.3,2.5,219.7,0.37,0.2,5.8,"10:19:28",1
"17/02/22","10:30",0.0,6.8,65.6,1021.1,224.3,0.6,1.3,183.7,0.39,0.9,5.9,"10:20:16",1
"17/02/22","10:40",0.0,7.0,64.0,1021.1,267.9,1.7,3.5,237.3,0.43,0.7,6.2,"10:35:12",1
"17/02/22","10:50",0.0,7.1,58.1,1020.8,248.9,1.5,2.8,243.3,0.43,-0.5,6.5,"10:44:00",1
"17/02/22","11:00",0.0,7.9,55.9,1020.6,223.5,1.3,3.7,240.1,0.47,-0.3,6.8,"10:59:36",1
"17/02/22","11:10",0.0,8.2,54.8,1020.4,253.7,1.1,2.4,306.4,0.49,-0.3,7.1,"11:08:48",1
"17/02/22","11:20",0.0,8.6,54.6,1020.4,259.5,1.0,2.4,128.2,0.49,0.0,7.3,"11:19:36",1
"17/02/22","11:30",0.0,7.8,54.7,1019.9,62.8,1.5,3.4,111.4,0.43,-0.7,7.5,"11:25:36",1
"17/02/22","11:40",0.0,8.1,55.3,1019.2,172.4,0.7,1.6,134.5,0.36,-0.3,7.6,"11:30:32",1
"17/02/22","11:50",0.0,8.6,52.4,1019.4,216.7,0.8,2.0,84.3,0.41,-0.5,7.8,"11:40:32",1
"17/02/22","12:00",0.0,9.4,51.7,1019.2,235.2,1.0,3.1,226.0,0.49,0.0,8.1,"11:56:00",1
"17/02/22","12:10",0.0,9.3,50.3,1019.0,189.1,0.8,1.9,206.5,0.44,-0.5,8.3,"12:01:52",1
"17/02/22","12:20",0.0,9.4,50.6,1018.7,79.3,1.2,4.0,110.2,0.44,-0.3,8.4,"12:12:16",1
"17/02/22","12:30",0.0,9.3,50.0,1018.0,193.3,1.3,2.6,164.8,0.38,-0.5,8.6,"12:28:16",1
"17/02/22","12:40",0.0,8.9,47.0,1017.5,198.8,1.7,3.3,193.5,0.31,-1.8,8.8,"12:34:24",1
"17/02/22","12:50",0.0,9.1,50.6,1017.3,211.6,1.5,3.1,199.9,0.28,-0.6,8.7,"12:49:52",1
"17/02/22","13:00",0.0,9.8,49.3,1017.1,164.2,1.3,2.8,141.1,0.41,-0.3,9.0,"12:56:16",1
"17/02/22","13:10",0.0,9.9,45.6,1017.3,234.1,1.2,2.2,273.0,0.39,-1.3,9.1,"13:03:52",1
"17/02/22","13:20",0.0,9.4,45.2,1016.8,106.3,1.1,2.6,112.1,0.26,-1.8,9.2,"13:14:24",1
"17/02/22","13:30",0.0,9.8,45.2,1016.6,272.6,1.3,2.7,312.9,0.20,-1.5,9.3,"13:22:08",1
"17/02/22","13:40",0.0,10.3,43.8,1016.6,270.5,1.1,2.7,315.3,0.26,-1.4,9.2,"13:36:56",1
"17/02/22","13:50",0.0,9.9,46.0,1016.1,179.6,1.2,2.4,133.6,0.20,-1.1,9.3,"13:48:16",1
"17/02/22","14:00",0.0,9.9,43.2,1016.1,165.0,1.0,2.8,322.9,0.14,-2.0,9.3,"13:59:44",1
"17/02/22","14:10",0.0,9.8,43.4,1015.9,332.2,1.8,3.2,325.2,0.07,-2.0,9.2,"14:02:00",1
"17/02/22","14:20",0.0,9.8,45.8,1015.9,268.0,0.8,1.8,322.4,0.05,-1.3,9.2,"14:10:08",1
"17/02/22","14:30",0.0,9.7,45.7,1015.4,171.2,1.2,2.4,194.7,0.07,-1.4,9.3,"14:27:20",1
"17/02/22","14:40",0.0,9.8,45.0,1015.4,205.2,1.0,2.1,194.4,0.08,-1.5,9.1,"14:33:52",1
"17/02/22","14:50",0.0,10.0,44.8,1015.6,269.4,1.3,2.0,266.5,0.09,-1.4,9.3,"14:48:32",1
"17/02/22","15:00",0.0,10.4,44.0,1015.4,279.8,1.6,2.6,258.3,0.11,-1.3,9.2,"14:57:20",1
"17/02/22","15:10",0.0,10.4,43.0,1015.9,264.8,1.1,2.0,250.8,0.09,-1.6,9.2,"15:05:36",1
"17/02/22","15:20",0.0,10.4,43.2,1015.4,307.3,1.5,2.6,323.0,0.07,-1.5,9.0,"15:16:40",1
"17/02/22","15:30",0.0,10.3,44.2,1015.6,317.9,2.0,2.6,314.7,0.06,-1.3,9.1,"15:21:20",1
"17/02/22","15:40",0.0,10.1,44.4,1015.6,311.7,1.8,2.4,323.9,0.03,-1.4,9.0,"15:30:56",1
"17/02/22","15:50",0.0,10.0,44.6,1015.4,301.9,1.7,2.2,324.5,0.04,-1.5,8.9,"15:40:40",1
"17/02/22","16:00",0.0,10.0,46.3,1015.2,291.1,0.8,1.9,312.4,0.02,-1.0,8.8,"15:52:16",1
"17/02/22","16:10",0.0,9.9,48.4,1015.4,279.5,0.6,1.3,306.4,0.00,-0.4,8.8,"16:00:24",1
"17/02/22","16:20",0.0,9.8,49.2,1014.7,283.1,0.8,1.1,323.7,0.00,-0.3,8.8,"16:12:56",1
"17/02/22","16:30",0.0,9.7,51.2,1014.7,275.3,1.2,1.6,280.9,0.01,0.2,8.7,"16:26:08",1
"17/02/22","16:40",0.0,9.8,56.8,1014.7,290.3,1.3,2.2,321.3,0.01,1.7,8.7,"16:36:00",1
"17/02/22","16:50",0.0,9.5,54.4,1014.9,287.7,1.6,2.0,279.3,0.00,0.8,8.6,"16:46:56",1
"17/02/22","17:00",0.0,9.5,54.5,1014.7,293.3,2.1,2.8,315.4,0.00,0.8,8.7,"16:56:00",1
"17/02/22","17:10",0.0,9.3,57.3,1014.0,303.8,2.1,2.7,310.4,0.00,1.3,8.5,"17:04:32",1
"17/02/22","17:20",0.0,9.1,60.4,1014.0,328.2,1.6,2.4,325.0,0.00,1.9,8.6,"17:11:20",1
"17/02/22","17:30",0.0,8.8,61.9,1013.5,319.6,1.8,2.1,328.7,0.00,1.9,8.2,"17:20:16",1
"17/02/22","17:40",0.0,8.7,64.1,1013.5,298.9,1.7,2.1,318.0,0.00,2.3,8.4,"17:35:44",1
"17/02/22","17:50",0.0,8.6,65.5,1013.8,287.4,1.5,2.1,299.3,0.00,2.5,8.5,"17:47:12",1
"17/02/22","18:00",0.0,8.3,67.8,1013.8,298.9,1.8,2.8,316.4,0.00,2.7,8.4,"17:56:16",1
"17/02/22","18:10",0.0,8.1,68.6,1013.0,302.3,2.0,2.6,311.2,0.00,2.7,8.3,"18:01:44",1
"17/02/22","18:20",0.0,8.0,69.4,1012.8,302.7,1.8,3.6,318.8,0.00,2.8,8.1,"18:11:28",1
"17/02/22","18:30",0.0,7.9,69.2,1013.3,285.7,1.8,2.8,304.2,0.00,2.7,8.2,"18:25:20",1
"17/02/22","18:40",0.0,7.8,70.4,1013.0,291.4,1.7,2.1,289.3,0.00,2.8,8.3,"18:34:08",1
"17/02/22","18:50",0.0,7.6,73.4,1012.8,319.3,2.7,3.6,332.5,0.00,3.2,8.2,"18:44:16",1
"17/02/22","19:00",0.0,7.3,75.8,1013.0,313.3,2.5,3.1,318.3,0.00,3.4,8.0,"18:59:20",1
"17/02/22","19:10",0.0,7.2,77.8,1012.8,307.6,2.5,3.7,320.1,0.00,3.6,8.1,"19:06:06",1
"17/02/22","19:20",0.0,7.1,79.6,1013.0,312.0,2.5,2.9,320.1,0.00,3.9,7.9,"19:12:00",1
"17/02/22","19:30",0.0,6.9,80.9,1012.8,307.2,2.2,3.1,316.5,0.00,3.9,8.0,"19:20:16",1
"17/02/22","19:40",0.0,6.9,81.8,1012.3,305.5,2.3,2.9,321.3,0.00,4.0,7.9,"19:31:04",1
"17/02/22","19:50",0.0,6.8,82.4,1012.6,286.1,2.0,2.5,282.4,0.00,4.1,7.9,"19:49:36",1
"17/02/22","20:00",0.0,6.7,82.7,1012.3,285.7,2.2,2.8,291.8,0.00,4.0,7.7,"19:54:56",1
"17/02/22","20:10",0.0,6.7,83.0,1011.9,302.6,2.2,3.2,318.5,0.00,4.1,7.8,"20:07:36",1
"17/02/22","20:20",0.0,6.7,84.0,1011.4,319.5,2.3,3.2,321.5,0.00,4.2,7.6,"20:14:16",1
"17/02/22","20:30",0.0,6.6,85.3,1011.6,296.3,2.1,2.5,309.5,0.00,4.4,7.6,"20:20:24",1
"17/02/22","20:40",0.0,6.5,85.4,1011.9,289.6,2.2,2.6,287.4,0.00,4.3,7.6,"20:38:32",1
"17/02/22","20:50",0.0,6.6,84.3,1011.2,292.6,2.2,2.7,295.1,0.00,4.2,7.4,"20:40:32",1
"17/02/22","21:00",0.0,6.7,83.2,1010.9,300.2,2.5,3.1,315.6,0.00,4.1,7.6,"20:52:08",1
"17/02/22","21:10",0.0,6.8,82.9,1010.9,303.2,2.2,2.7,304.8,0.00,4.1,7.5,"21:07:20",1
"17/02/22","21:20",0.0,6.8,83.5,1010.7,311.9,2.0,3.1,312.5,0.00,4.2,7.6,"21:16:48",1
"17/02/22","21:30",0.0,6.7,84.2,1010.2,305.3,2.0,2.4,303.7,0.00,4.3,7.3,"21:23:44",1
"17/02/22","21:40",0.0,6.7,83.9,1010.0,307.1,2.3,2.9,304.1,0.00,4.2,7.5,"21:39:44",1
"17/02/22","21:50",0.0,6.7,83.7,1010.0,293.7,2.2,3.3,313.3,0.00,4.2,7.4,"21:47:20",1
"17/02/22","22:00",0.0,6.7,83.6,1009.7,304.4,2.0,2.7,311.1,0.00,4.2,7.4,"21:56:40",1
"17/02/22","22:10",0.0,6.7,84.3,1009.7,314.1,2.5,3.4,324.3,0.00,4.3,7.5,"22:02:40",1
"17/02/22","22:20",0.2,6.6,85.6,1009.5,308.2,2.2,2.9,317.6,0.00,4.4,7.2,"22:11:52",1
"17/02/22","22:30",0.0,6.5,87.2,1009.5,313.5,2.6,3.1,320.1,0.00,4.6,7.4,"22:25:22",1
"17/02/22","22:40",0.0,6.4,88.9,1008.6,304.2,2.0,2.9,323.8,0.00,4.7,7.3,"22:31:04",1
"17/02/22","22:50",0.0,6.2,90.0,1008.3,290.8,1.7,1.9,293.7,0.00,4.7,7.1,"22:41:08",1
"17/02/22","23:00",0.2,6.1,90.8,1007.8,292.0,1.8,2.5,280.2,0.00,4.8,7.2,"22:58:40",1
"17/02/22","23:10",0.0,6.0,91.8,1008.3,291.1,2.1,2.8,302.2,0.00,4.8,7.4,"23:08:16",1
"17/02/22","23:20",0.2,6.0,92.4,1007.8,317.6,1.8,3.4,323.4,0.00,4.9,7.4,"23:14:32",1
"17/02/22","23:30",0.0,6.0,92.9,1006.9,322.2,2.1,2.9,321.7,0.00,5.0,7.2,"23:23:20",1
"17/02/22","23:40",0.0,6.0,93.5,1006.9,299.3,2.0,2.5,326.1,0.00,5.1,7.3,"23:31:52",1
"17/02/22","23:50",0.0,6.0,94.0,1006.7,284.3,2.0,2.4,296.7,0.00,5.1,7.6,"23:45:28",1
"17/02/22","24:00",0.0,6.0,94.4,1006.9,292.7,2.0,2.8,295.2,0.00,5.2,7.4,"23:52:00",1
